Regional Weather Roundup
Issued by NWS Newport/Morehead, NC

Current Version | Previous Version | Text Only | Print | Product List | Glossary Off
Versions: 1 2 3 4 5 6 7 8 9 10 11 12 13 14 15 16 17 18 19 20 21 22 23 24 25 26 27 28 29 30 31 32 33 34 35 36 37 38 39 40 41 42 43 44 45 46 47 48 49 50
000 ASUS42 KMHX 230025 RWRMHX WEATHER ROUNDUP FOR EASTERN NORTH CAROLINA NATIONAL WEATHER SERVICE NEWPORT/MOREHEAD CITY NC 700 PM EST SUN JAN 22 2017 NOTE: "FAIR" INDICATES FEW OR NO CLOUDS BELOW 12,000 FEET WITH NO SIGNIFICANT WEATHER AND/OR OBSTRUCTIONS TO VISIBILITY NCZ015>017-031-032-045>047-102-103-230100- NORTH COAST CITY SKY/WX TMP DP RH WIND PRES REMARKS EDENTON CLOUDY 55 55 97 CALM 29.60S FOG ELIZABETH CITY CLOUDY 51 51 100 N7 29.59S KITTY HAWK NOT AVBL MANTEO CLOUDY 49 49 100 NE7 29.59S FOG $$ NCZ045>047-081-094-103-104-230100- CENTRAL COAST CITY SKY/WX TMP DP RH WIND PRES REMARKS FRISCO PTCLDY 58 56 93 VRB3 29.56F FOG $$ NCZ095-097-098-100-101-230100- SOUTHERN COAST CITY SKY/WX TMP DP RH WIND PRES REMARKS BEAUFORT CLOUDY 61 59 93 E3 29.56R CEDAR ISLAND NOT AVBL JACKSONVILLE CLOUDY 59 59 100 E12 29.49F PINEY ISLAND CLOUDY N/A N/A N/A NE3 29.56F WILMINGTON CLOUDY 59 59 100 SE5 29.49F $$ NCZ011>013-027>030-043-044-078>080-089-090>093-098-230100- COASTAL PLAIN CITY SKY/WX TMP DP RH WIND PRES REMARKS AHOSKIE DRIZZLE 51 50 98 N3 29.60S CLINTON CLOUDY 58 58 100 NE3 29.48F FOG ELIZABETHTOWN CLOUDY 60 60 99 E5 29.46F GOLDSBORO CLOUDY 57 57 100 NE10 29.50F GREENVILLE CLOUDY 55 55 100 NE7 29.59F HAVELOCK CLOUDY 60 57 89 NE5 29.55F KENANSVILLE CLOUDY 59 57 94 E6 29.48F KINSTON CLOUDY 57 57 100 NE9 29.53F NEW BERN CLOUDY 58 56 93 E6 29.54F RICHLANDS CLOUDY 60 58 92 NE12 29.50F ROCKY MOUNT CLOUDY 54 54 100 NE7 29.55F WASHINGTON CLOUDY 57 56 94 NE6 N/A WHITEVILLE MOCLDY 60 58 94 NE7 29.44S $$ AMZ130-135-150-152-154-156-158-170-250-252-270-ANZ085-086-088-633-658-670-230100- MARINE OBSERVATIONS STATION/POSITION TIME TEMP WIND PRES WAVE SWELL AIR SEA DIR/SP/G HT/PER HT/PER (UTC) (F) (DEG/KT/KT) (MB) (FT/S) (FT/S) CHESAPEAKE LIGHT NOT AVBL 64 E VA BEACH 2350 50 56 280/ 14/ 16 1000.8 5/13 3/13 DUCK 2348 47 330/ 11/ 11 1001.6 2 E DUCK 0000 47 N/A 3/14 2/14 OREGON INLET 2336 51 360/ 7/ 9 1001.7 13E OREGON INLT NOT AVBL HATTERAS CG 2348 55 340/ 7/ 7 1000.7 DIAMOND BUOY 2350 63 71 330/ 10/ 12 1001.0 4/13 3/13 CAPE LOOKOUT 0000 60 20/ 5/ 8 1000.3 BEAUFORT LAB 2348 52 40/ 4/ 4 999.6 30 SE NEW RVR IN 0008 62 67 40/ 6/ 14 999.8 30 SE NEW RVR IN 2343 67 N/A 5/ 6 2/14 27 SE WRIGHTSVLE 0008 65 65 290/ 8/ 12 1000.2 5 SE WRIGHTSVLE 0008 56 100/ 12/ 16 999.1 225 S CAPE HAT 2350 69 71 270/ 4/ 10 1002.8 10/ 8 10/ 8 41 SE CHARLESTON 2350 66 67 120/ 19/ 23 996.6 6/ 7 3/14 $$

USA.gov is the U.S. government's official web portal to all federal, state and local government web resources and services.